Flag for Turkey Weather past 2 weeks in Istanbul, Turkey

Now
77 °F

Passing clouds.


Feels Like: 79 °F
Forecast: 74 / 84 °F
Wind: 9 mph from North

Location: Istanbul Ataturk Airport

Current Time: Jul 26, 2014 at 2:26:51 AM

Latest Report: Jul 26, 2014 at 1:50 AM


Visibility: N/A

Pressure: 29.83 "Hg

Humidity: 79%

Dew point: 70 °F

Location of IstanbulLocation

Historic Weather in Istanbul — Graph

°F

Istanbul temperature yesterday

Maximum temperature yesterday: 84 °F (at 11:50 AM)
Minimum temperature yesterday: 73 °F (at 2:50 AM)
Average temperature yesterday: 78 °F

Past Weeks' High & Low Weather Summary

 TemperatureHumidityPressure
High90 °F (Jul 11, 1:50 PM)89% (Jul 19, 11:50 AM)29.95 "Hg (Jul 19, 11:50 AM)
Low70 °F (Jul 14, 5:20 AM)27% (Jul 14, 12:20 PM)29.59 "Hg (Jul 11, 1:50 PM)
Average79 °F64%29.81 "Hg
* Reported Jul 11 1:20 AM — Jul 26 1:20 AM, Istanbul, Weather by CustomWeather, © 2014

Note: Actual official high and low records may vary slightly from our data, if they occured in-between our weather recording intervals... More about our weather records

Advertising

Istanbul weather history for previous 24 hours

 ConditionsComfort  
Time TempWeatherWind HumidityBarometerVisibility
1:20 AM
Jul 26
77 °FPassing clouds.9 mph79%29.83 "HgN/A
12:50 AM77 °FPassing clouds.8 mph79%29.83 "HgN/A
12:20 AM77 °FPassing clouds.8 mph79%29.86 "HgN/A
11:50 PM
Jul 25
77 °FPassing clouds.8 mph79%29.86 "HgN/A
11:20 PM77 °FPassing clouds.8 mph79%29.83 "HgN/A
10:50 PM77 °FPassing clouds.9 mph79%29.83 "HgN/A
10:20 PM77 °FPassing clouds.9 mph79%29.83 "HgN/A
9:50 PM77 °FPassing clouds.10 mph79%29.83 "HgN/A
9:20 PM79 °FScattered clouds.14 mph74%29.83 "HgN/A
8:50 PM79 °FBroken clouds.17 mph70%29.83 "HgN/A
8:20 PM79 °FBroken clouds.15 mph70%29.83 "HgN/A
7:50 PM79 °FBroken clouds.14 mph70%29.83 "HgN/A
7:20 PM79 °FBroken clouds.15 mph74%29.83 "HgN/A
6:50 PM79 °FBroken clouds.15 mph74%29.83 "HgN/A
6:20 PM79 °FBroken clouds.18 mph74%29.83 "HgN/A
5:50 PM79 °FBroken clouds.15 mph70%29.83 "HgN/A
5:20 PM77 °FBroken clouds.16 mph74%29.83 "HgN/A
4:50 PM79 °FPartly sunny.17 mph74%29.83 "HgN/A
4:20 PM84 °FScattered clouds.20 mph58%29.80 "HgN/A
3:50 PM84 °FScattered clouds.16 mph58%29.83 "HgN/A
3:20 PM84 °FScattered clouds.17 mph58%29.83 "HgN/A
2:50 PM84 °FScattered clouds.16 mph55%29.83 "HgN/A
2:20 PM82 °FScattered clouds.18 mph58%29.83 "HgN/A
1:50 PM84 °FScattered clouds.18 mph55%29.83 "HgN/A
1:20 PM84 °FScattered clouds.16 mph55%29.83 "HgN/A
12:50 PM84 °FScattered clouds.15 mph51%29.83 "HgN/A
12:20 PM82 °FScattered clouds.14 mph55%29.83 "HgN/A
11:50 AM84 °FScattered clouds.13 mph55%29.83 "HgN/A
11:20 AM82 °FScattered clouds.13 mph55%29.83 "HgN/A
10:50 AM81 °FScattered clouds.10 mph58%29.83 "HgN/A
10:20 AM81 °FScattered clouds.12 mph58%29.83 "HgN/A
9:50 AM81 °FScattered clouds.14 mph62%29.83 "HgN/A
9:20 AM79 °FPassing clouds.15 mph61%29.83 "HgN/A
8:50 AM79 °FPassing clouds.15 mph65%29.83 "HgN/A
8:20 AM77 °FPassing clouds.14 mph74%29.83 "HgN/A
7:50 AM77 °FPassing clouds.13 mph74%29.83 "HgN/A
7:20 AM75 °FPassing clouds.9 mph78%29.83 "HgN/A
6:50 AM75 °FPassing clouds.7 mph78%29.83 "HgN/A
6:20 AM73 °FPassing clouds.6 mph83%29.80 "HgN/A
5:50 AM73 °FPassing clouds.7 mph83%29.80 "HgN/A
5:20 AM73 °FPassing clouds.6 mph83%29.80 "HgN/A
4:50 AM73 °FClear.8 mph83%29.80 "Hg10 mi
4:20 AM73 °FPassing clouds.7 mph89%29.80 "HgN/A
3:50 AM73 °FPassing clouds.9 mph89%29.80 "HgN/A
3:20 AM73 °FPassing clouds.7 mph89%29.80 "HgN/A
2:50 AM73 °FPassing clouds.8 mph89%29.80 "HgN/A
2:20 AM75 °FClear.7 mph83%29.80 "Hg10 mi
Weather by CustomWeather, © 2014

See weather overviewHow to use our weather pages